,,PressureMeas_1m,,PRMeasQMR101_1,,RHStat155_1m_1,,SRMeasQMS101R_1m,,TAStat155_1m_1,,GenWind_1,,GenWind_1,
2018-05-27, 00:00:06,VALID,918.343,VALID,0.0,VALID,99.012,VALID,-0.043,VALID,20.973,VALID,149.0,VALID,0.0,
2018-05-27, 00:01:06,VALID,918.324,VALID,0.0,VALID,98.982,VALID,-0.059,VALID,20.936,VALID,137.0,VALID,0.0,
2018-05-27, 00:02:06,VALID,918.299,VALID,0.0,VALID,98.997,VALID,-0.049,VALID,20.939,VALID,130.0,VALID,0.0,
2018-05-27, 00:03:06,VALID,918.286,VALID,0.0,VALID,99.044,VALID,-0.027,VALID,20.976,VALID,131.0,VALID,0.0,
2018-05-27, 00:04:06,VALID,918.263,VALID,0.0,VALID,99.017,VALID,-0.004,VALID,20.943,VALID,131.0,VALID,0.0,
2018-05-27, 00:05:06,VALID,918.245,VALID,0.0,VALID,99.024,VALID,-0.011,VALID,20.902,VALID,131.0,VALID,0.0,
2018-05-27, 00:06:06,VALID,918.238,VALID,0.0,VALID,99.014,VALID,-0.014,VALID,20.895,VALID,131.0,VALID,0.0,
2018-05-27, 00:07:06,VALID,918.226,VALID,0.0,VALID,99.03,VALID,-0.017,VALID,20.899,VALID,131.0,VALID,0.0,
2018-05-27, 00:08:06,VALID,918.207,VALID,0.0,VALID,99.036,VALID,-0.011,VALID,20.921,VALID,139.0,VALID,0.0,
2018-05-27, 00:09:06,VALID,918.192,VALID,0.0,VALID,99.044,VALID,-0.013,VALID,20.945,VALID,141.0,VALID,0.0,
2018-05-27, 00:10:06,VALID,918.169,VALID,0.0,VALID,99.039,VALID,-0.012,VALID,20.95,VALID,141.0,VALID,0.0,
2018-05-27, 00:11:06,VALID,918.15,VALID,0.0,VALID,99.049,VALID,-0.011,VALID,20.956,VALID,144.0,VALID,0.006,
2018-05-27, 00:12:06,VALID,918.13,VALID,0.0,VALID,99.051,VALID,-0.006,VALID,20.967,VALID,151.0,VALID,0.0,
2018-05-27, 00:13:06,VALID,918.112,VALID,0.0,VALID,99.044,VALID,-0.024,VALID,20.977,VALID,152.0,VALID,0.0,
2018-05-27, 00:14:06,VALID,918.092,VALID,0.0,VALID,99.029,VALID,-0.024,VALID,20.935,VALID,152.0,VALID,0.0,
2018-05-27, 00:15:06,VALID,918.061,VALID,0.0,VALID,99.043,VALID,-0.012,VALID,20.904,VALID,152.0,VALID,0.0,
2018-05-27, 00:16:06,VALID,918.039,VALID,0.0,VALID,99.049,VALID,-0.003,VALID,20.898,VALID,152.0,VALID,0.0,
2018-05-27, 00:17:06,VALID,918.034,VALID,0.0,VALID,99.024,VALID,-0.0,VALID,20.897,VALID,152.0,VALID,0.0,
2018-05-27, 00:18:06,VALID,918.025,VALID,0.0,VALID,99.061,VALID,0.0,VALID,20.91,VALID,146.0,VALID,0.0,
2018-05-27, 00:19:06,VALID,918.01,VALID,0.0,VALID,99.055,VALID,0.029,VALID,20.928,VALID,135.0,VALID,0.027,
2018-05-27, 00:20:06,VALID,918.007,VALID,0.0,VALID,99.047,VALID,0.018,VALID,20.91,VALID,132.0,VALID,0.025,
2018-05-27, 00:21:06,VALID,918.008,VALID,0.0,VALID,99.051,VALID,0.008,VALID,20.888,VALID,131.0,VALID,0.0,
2018-05-27, 00:22:06,VALID,918.005,VALID,0.0,VALID,99.04,VALID,-0.007,VALID,20.859,VALID,123.0,VALID,0.204,
2018-05-27, 00:23:06,VALID,918.018,VALID,0.0,VALID,99.025,VALID,0.006,VALID,20.828,VALID,114.0,VALID,0.179,
2018-05-27, 00:24:06,VALID,918.015,VALID,0.0,VALID,99.043,VALID,0.017,VALID,20.836,VALID,92.0,VALID,0.341,
2018-05-27, 00:25:06,VALID,918.008,VALID,0.0,VALID,99.044,VALID,0.018,VALID,20.83,VALID,104.0,VALID,0.559,
2018-05-27, 00:26:06,VALID,917.994,VALID,0.0,VALID,99.045,VALID,0.009,VALID,20.829,VALID,105.0,VALID,0.5,
2018-05-27, 00:27:06,VALID,917.97,VALID,0.0,VALID,99.053,VALID,0.006,VALID,20.823,VALID,115.0,VALID,0.579,
2018-05-27, 00:28:06,VALID,917.957,VALID,0.0,VALID,99.046,VALID,-0.002,VALID,20.808,VALID,129.0,VALID,0.721,
2018-05-27, 00:29:06,VALID,917.937,VALID,0.0,VALID,99.074,VALID,0.002,VALID,20.835,VALID,130.0,VALID,0.703,
2018-05-27, 00:30:06,VALID,917.917,VALID,0.0,VALID,99.058,VALID,0.002,VALID,20.834,VALID,131.0,VALID,0.509,
2018-05-27, 00:31:06,VALID,917.921,VALID,0.0,VALID,99.076,VALID,-0.017,VALID,20.862,VALID,138.0,VALID,0.611,
2018-05-27, 00:32:06,VALID,917.911,VALID,0.0,VALID,99.044,VALID,0.009,VALID,20.837,VALID,130.0,VALID,1.127,
2018-05-27, 00:33:06,VALID,917.914,VALID,0.0,VALID,99.069,VALID,-0.002,VALID,20.802,VALID,119.0,VALID,1.23,
2018-05-27, 00:34:06,VALID,917.914,VALID,0.0,VALID,99.037,VALID,-0.006,VALID,20.777,VALID,126.0,VALID,1.018,
2018-05-27, 00:35:06,VALID,917.918,VALID,0.0,VALID,99.072,VALID,0.016,VALID,20.774,VALID,111.0,VALID,0.97,
2018-05-27, 00:36:06,VALID,917.899,VALID,0.0,VALID,99.067,VALID,-0.003,VALID,20.763,VALID,117.0,VALID,0.984,
2018-05-27, 00:37:06,VALID,917.88,VALID,0.0,VALID,99.066,VALID,0.0,VALID,20.783,VALID,137.0,VALID,0.904,
2018-05-27, 00:38:06,VALID,917.858,VALID,0.0,VALID,99.071,VALID,0.008,VALID,20.788,VALID,121.0,VALID,0.598,
2018-05-27, 00:39:06,VALID,917.84,VALID,0.0,VALID,99.075,VALID,0.01,VALID,20.79,VALID,142.0,VALID,0.314,
2018-05-27, 00:40:06,VALID,917.837,VALID,0.0,VALID,99.097,VALID,0.008,VALID,20.829,VALID,182.0,VALID,0.304,
2018-05-27, 00:41:06,VALID,917.82,VALID,0.0,VALID,99.082,VALID,-0.011,VALID,20.828,VALID,151.0,VALID,0.317,
2018-05-27, 00:42:06,VALID,917.81,VALID,0.0,VALID,99.087,VALID,0.001,VALID,20.819,VALID,132.0,VALID,0.763,
2018-05-27, 00:43:06,VALID,917.808,VALID,0.0,VALID,99.08,VALID,-0.0,VALID,20.794,VALID,147.0,VALID,0.892,
2018-05-27, 00:44:06,VALID,917.807,VALID,0.0,VALID,99.087,VALID,0.017,VALID,20.788,VALID,160.0,VALID,0.762,
2018-05-27, 00:45:06,VALID,917.803,VALID,0.0,VALID,99.083,VALID,0.012,VALID,20.774,VALID,131.0,VALID,1.018,
2018-05-27, 00:46:06,VALID,917.802,VALID,0.0,VALID,99.08,VALID,-0.003,VALID,20.759,VALID,114.0,VALID,1.35,
2018-05-27, 00:47:06,VALID,917.784,VALID,0.0,VALID,99.073,VALID,0.002,VALID,20.743,VALID,110.0,VALID,1.211,
2018-05-27, 00:48:06,VALID,917.757,VALID,0.0,VALID,99.064,VALID,0.004,VALID,20.707,VALID,114.0,VALID,1.884,
2018-05-27, 00:49:06,VALID,917.737,VALID,0.0,VALID,99.057,VALID,-0.027,VALID,20.687,VALID,116.0,VALID,1.673,
2018-05-27, 00:50:06,VALID,917.706,VALID,0.0,VALID,99.059,VALID,-0.043,VALID,20.665,VALID,121.0,VALID,1.525,
2018-05-27, 00:51:06,VALID,917.696,VALID,0.0,VALID,99.073,VALID,-0.022,VALID,20.653,VALID,120.0,VALID,1.728,
2018-05-27, 00:52:06,VALID,917.684,VALID,0.0,VALID,99.062,VALID,0.007,VALID,20.618,VALID,122.0,VALID,1.81,
2018-05-27, 00:53:06,VALID,917.658,VALID,0.0,VALID,99.065,VALID,0.005,VALID,20.603,VALID,130.0,VALID,1.161,
2018-05-27, 00:54:06,VALID,917.638,VALID,0.0,VALID,99.096,VALID,0.001,VALID,20.64,VALID,140.0,VALID,0.516,
2018-05-27, 00:55:06,VALID,917.656,VALID,0.0,VALID,99.091,VALID,0.013,VALID,20.663,VALID,141.0,VALID,0.839,
2018-05-27, 00:56:06,VALID,917.646,VALID,0.0,VALID,99.086,VALID,0.008,VALID,20.662,VALID,132.0,VALID,0.756,
2018-05-27, 00:57:06,VALID,917.63,VALID,0.0,VALID,99.085,VALID,0.001,VALID,20.674,VALID,150.0,VALID,0.177,
2018-05-27, 00:58:06,VALID,917.617,VALID,0.0,VALID,99.088,VALID,0.023,VALID,20.66,VALID,110.0,VALID,0.598,
2018-05-27, 00:59:06,VALID,917.607,VALID,0.0,VALID,99.067,VALID,0.002,VALID,20.636,VALID,125.0,VALID,0.004,
2018-05-27, 01:00:06,VALID,917.576,VALID,0.0,VALID,99.084,VALID,0.005,VALID,20.63,INVALID,360.0,VALID,0.0,
2018-05-27, 01:01:06,VALID,917.562,VALID,0.0,VALID,99.097,VALID,0.018,VALID,20.64,VALID,113.0,VALID,0.65,
2018-05-27, 01:02:06,VALID,917.526,VALID,0.0,VALID,99.075,VALID,0.024,VALID,20.611,VALID,123.0,VALID,1.021,
2018-05-27, 01:03:06,VALID,917.507,VALID,0.0,VALID,99.08,VALID,0.012,VALID,20.609,VALID,161.0,VALID,0.459,
2018-05-27, 01:04:06,VALID,917.494,VALID,0.0,VALID,99.077,VALID,0.015,VALID,20.623,VALID,154.0,VALID,1.079,
2018-05-27, 01:05:06,VALID,917.478,VALID,0.0,VALID,99.085,VALID,0.016,VALID,20.631,VALID,174.0,VALID,0.439,
2018-05-27, 01:06:06,VALID,917.451,VALID,0.0,VALID,99.093,VALID,0.014,VALID,20.646,VALID,161.0,VALID,0.761,
2018-05-27, 01:07:06,VALID,917.427,VALID,0.0,VALID,99.069,VALID,0.005,VALID,20.64,VALID,146.0,VALID,0.782,
2018-05-27, 01:08:06,VALID,917.423,VALID,0.0,VALID,99.063,VALID,0.005,VALID,20.617,VALID,124.0,VALID,0.803,
2018-05-27, 01:09:06,VALID,917.397,VALID,0.0,VALID,99.047,VALID,0.002,VALID,20.604,VALID,98.0,VALID,0.929,
2018-05-27, 01:10:06,VALID,917.391,VALID,0.0,VALID,99.067,VALID,-0.0,VALID,20.597,VALID,118.0,VALID,1.614,
2018-05-27, 01:11:06,VALID,917.369,VALID,0.0,VALID,99.073,VALID,0.011,VALID,20.597,VALID,120.0,VALID,1.799,
2018-05-27, 01:12:06,VALID,917.332,VALID,0.0,VALID,99.031,VALID,-0.012,VALID,20.571,VALID,120.0,VALID,1.924,
2018-05-27, 01:13:06,VALID,917.308,VALID,0.0,VALID,99.068,VALID,0.004,VALID,20.576,VALID,124.0,VALID,1.787,
2018-05-27, 01:14:06,VALID,917.262,VALID,0.0,VALID,99.036,VALID,-0.001,VALID,20.569,VALID,111.0,VALID,1.647,
2018-05-27, 01:15:06,VALID,917.237,VALID,0.0,VALID,99.057,VALID,-0.012,VALID,20.593,VALID,173.0,VALID,0.703,
2018-05-27, 01:16:06,VALID,917.204,VALID,0.0,VALID,99.027,VALID,-0.002,VALID,20.564,VALID,152.0,VALID,0.688,
2018-05-27, 01:17:06,VALID,917.178,VALID,0.0,VALID,99.03,VALID,-0.008,VALID,20.563,VALID,124.0,VALID,0.284,
2018-05-27, 01:18:06,VALID,917.148,VALID,0.0,VALID,99.047,VALID,-0.002,VALID,20.565,VALID,165.0,VALID,0.628,
2018-05-27, 01:19:06,VALID,917.135,VALID,0.0,VALID,99.022,VALID,-0.011,VALID,20.55,VALID,152.0,VALID,0.782,
2018-05-27, 01:20:06,VALID,917.12,VALID,0.0,VALID,99.021,VALID,-0.003,VALID,20.545,VALID,135.0,VALID,0.749,
2018-05-27, 01:21:06,VALID,917.113,VALID,0.0,VALID,99.007,VALID,-0.006,VALID,20.539,VALID,147.0,VALID,0.659,
2018-05-27, 01:22:06,VALID,917.102,VALID,0.0,VALID,98.997,VALID,-0.014,VALID,20.533,VALID,132.0,VALID,0.602,
2018-05-27, 01:23:06,VALID,917.103,VALID,0.0,VALID,99.022,VALID,-0.021,VALID,20.513,VALID,128.0,VALID,1.666,
2018-05-27, 01:24:06,VALID,917.101,VALID,0.0,VALID,99.003,VALID,-0.014,VALID,20.507,VALID,153.0,VALID,1.458,
2018-05-27, 01:25:06,VALID,917.101,VALID,0.0,VALID,99.002,VALID,0.0,VALID,20.502,VALID,146.0,VALID,0.729,
2018-05-27, 01:26:06,VALID,917.109,VALID,0.0,VALID,99.016,VALID,-0.021,VALID,20.522,VALID,154.0,VALID,0.684,
2018-05-27, 01:27:06,VALID,917.092,VALID,0.0,VALID,98.998,VALID,-0.02,VALID,20.511,VALID,131.0,VALID,1.11,
2018-05-27, 01:28:06,VALID,917.08,VALID,0.0,VALID,99.009,VALID,-0.01,VALID,20.507,VALID,159.0,VALID,1.278,
2018-05-27, 01:29:06,VALID,917.057,VALID,0.0,VALID,98.998,VALID,-0.032,VALID,20.522,VALID,132.0,VALID,0.861,
2018-05-27, 01:30:06,VALID,917.053,VALID,0.0,VALID,99.004,VALID,-0.006,VALID,20.53,VALID,137.0,VALID,0.234,
2018-05-27, 01:31:06,VALID,917.025,VALID,0.0,VALID,98.983,VALID,-0.016,VALID,20.531,VALID,150.0,VALID,1.033,
2018-05-27, 01:32:06,VALID,917.029,VALID,0.0,VALID,98.949,VALID,-0.021,VALID,20.501,VALID,145.0,VALID,1.025,
2018-05-27, 01:33:06,VALID,917.011,VALID,0.0,VALID,98.957,VALID,-0.02,VALID,20.509,VALID,140.0,VALID,1.011,
2018-05-27, 01:34:06,VALID,916.995,VALID,0.0,VALID,98.944,VALID,0.004,VALID,20.515,VALID,139.0,VALID,0.821,
2018-05-27, 01:35:06,VALID,916.988,VALID,0.0,VALID,98.961,VALID,0.004,VALID,20.506,VALID,158.0,VALID,1.04,
2018-05-27, 01:36:06,VALID,916.961,VALID,0.0,VALID,98.955,VALID,0.009,VALID,20.512,VALID,147.0,VALID,0.559,
2018-05-27, 01:37:06,VALID,916.944,VALID,0.0,VALID,98.956,VALID,-0.001,VALID,20.511,VALID,141.0,VALID,1.108,
2018-05-27, 01:38:06,VALID,916.921,VALID,0.0,VALID,98.938,VALID,-0.004,VALID,20.491,VALID,143.0,VALID,1.575,
2018-05-27, 01:39:06,VALID,916.912,VALID,0.0,VALID,98.914,VALID,0.007,VALID,20.478,VALID,157.0,VALID,0.421,
2018-05-27, 01:40:06,VALID,916.874,VALID,0.0,VALID,98.917,VALID,-0.005,VALID,20.476,VALID,141.0,VALID,1.45,
2018-05-27, 01:41:06,VALID,916.862,VALID,0.0,VALID,98.892,VALID,-0.005,VALID,20.472,VALID,127.0,VALID,2.208,
2018-05-27, 01:42:06,VALID,916.876,VALID,0.0,VALID,98.894,VALID,0.009,VALID,20.465,VALID,131.0,VALID,2.214,
2018-05-27, 01:43:06,VALID,916.864,VALID,0.0,VALID,98.89,VALID,0.005,VALID,20.438,VALID,128.0,VALID,2.342,
2018-05-27, 01:44:06,VALID,916.855,VALID,0.0,VALID,98.85,VALID,0.034,VALID,20.43,VALID,121.0,VALID,2.345,
2018-05-27, 01:45:06,VALID,916.844,VALID,0.0,VALID,98.816,VALID,0.01,VALID,20.42,VALID,117.0,VALID,1.926,
2018-05-27, 01:46:06,VALID,916.82,VALID,0.0,VALID,98.84,VALID,0.003,VALID,20.438,VALID,134.0,VALID,1.393,
2018-05-27, 01:47:06,VALID,916.798,VALID,0.0,VALID,98.835,VALID,0.004,VALID,20.437,VALID,122.0,VALID,1.62,
2018-05-27, 01:48:06,VALID,916.765,VALID,0.0,VALID,98.822,VALID,0.02,VALID,20.421,VALID,134.0,VALID,1.677,
2018-05-27, 01:49:06,VALID,916.735,VALID,0.0,VALID,98.829,VALID,0.012,VALID,20.438,VALID,135.0,VALID,1.631,
2018-05-27, 01:50:06,VALID,916.725,VALID,0.0,VALID,98.803,VALID,0.01,VALID,20.445,VALID,129.0,VALID,1.754,
2018-05-27, 01:51:06,VALID,916.706,VALID,0.0,VALID,98.776,VALID,0.019,VALID,20.42,VALID,116.0,VALID,2.662,
2018-05-27, 01:52:06,VALID,916.701,VALID,0.0,VALID,98.721,VALID,0.029,VALID,20.406,VALID,119.0,VALID,2.045,
2018-05-27, 01:53:06,VALID,916.686,VALID,0.0,VALID,98.712,VALID,0.031,VALID,20.415,VALID,134.0,VALID,1.068,
2018-05-27, 01:54:06,VALID,916.687,VALID,0.0,VALID,98.706,VALID,0.03,VALID,20.424,VALID,125.0,VALID,2.053,
2018-05-27, 01:55:06,VALID,916.685,VALID,0.0,VALID,98.695,VALID,0.022,VALID,20.413,VALID,128.0,VALID,2.121,
2018-05-27, 01:56:06,VALID,916.687,VALID,0.0,VALID,98.677,VALID,0.029,VALID,20.419,VALID,129.0,VALID,1.595,
2018-05-27, 01:57:06,VALID,916.693,VALID,0.0,VALID,98.632,VALID,0.019,VALID,20.402,VALID,115.0,VALID,1.976,
2018-05-27, 01:58:06,VALID,916.705,VALID,0.0,VALID,98.61,VALID,0.004,VALID,20.398,VALID,133.0,VALID,1.55,
2018-05-27, 01:59:06,VALID,916.683,VALID,0.0,VALID,98.66,VALID,0.021,VALID,20.427,VALID,149.0,VALID,1.015,
2018-05-27, 02:00:06,VALID,916.687,VALID,0.0,VALID,98.65,VALID,0.017,VALID,20.433,VALID,140.0,VALID,0.935,
2018-05-27, 02:01:06,VALID,916.67,VALID,0.0,VALID,98.626,VALID,0.004,VALID,20.411,VALID,126.0,VALID,1.519,
2018-05-27, 02:02:06,VALID,916.658,VALID,0.0,VALID,98.596,VALID,0.023,VALID,20.41,VALID,135.0,VALID,1.076,
2018-05-27, 02:03:06,VALID,916.64,VALID,0.0,VALID,98.622,VALID,0.032,VALID,20.415,VALID,162.0,VALID,0.903,
2018-05-27, 02:04:06,VALID,916.636,VALID,0.0,VALID,98.6,VALID,0.05,VALID,20.4,VALID,144.0,VALID,1.073,
2018-05-27, 02:05:06,VALID,916.625,VALID,0.0,VALID,98.589,VALID,0.019,VALID,20.399,VALID,173.0,VALID,0.302,
2018-05-27, 02:06:06,VALID,916.607,VALID,0.0,VALID,98.586,VALID,0.036,VALID,20.382,VALID,121.0,VALID,1.159,
2018-05-27, 02:07:06,VALID,916.595,VALID,0.0,VALID,98.6,VALID,0.028,VALID,20.384,VALID,167.0,VALID,0.34,
2018-05-27, 02:08:06,VALID,916.598,VALID,0.0,VALID,98.617,VALID,0.035,VALID,20.376,VALID,173.0,VALID,0.357,
2018-05-27, 02:09:06,VALID,916.604,VALID,0.0,VALID,98.616,VALID,0.047,VALID,20.374,VALID,132.0,VALID,0.603,
2018-05-27, 02:10:06,VALID,916.609,VALID,0.0,VALID,98.616,VALID,0.036,VALID,20.373,INVALID,360.0,VALID,0.054,
2018-05-27, 02:11:06,VALID,916.608,VALID,0.0,VALID,98.673,VALID,0.023,VALID,20.401,INVALID,360.0,VALID,0.0,
2018-05-27, 02:12:06,VALID,916.624,VALID,0.0,VALID,98.677,VALID,0.037,VALID,20.405,INVALID,360.0,VALID,0.0,
2018-05-27, 02:13:06,VALID,916.619,VALID,0.0,VALID,98.689,VALID,0.039,VALID,20.408,INVALID,360.0,VALID,0.0,
2018-05-27, 02:14:06,VALID,916.619,VALID,0.0,VALID,98.751,VALID,0.039,VALID,20.458,INVALID,360.0,VALID,0.0,
2018-05-27, 02:15:06,VALID,916.615,VALID,0.0,VALID,98.789,VALID,0.039,VALID,20.48,INVALID,360.0,VALID,0.0,
2018-05-27, 02:16:06,VALID,916.616,VALID,0.0,VALID,98.818,VALID,0.042,VALID,20.496,INVALID,360.0,VALID,0.0,
2018-05-27, 02:17:06,VALID,916.603,VALID,0.0,VALID,98.799,VALID,0.039,VALID,20.49,INVALID,360.0,VALID,0.0,
2018-05-27, 02:18:06,VALID,916.598,VALID,0.0,VALID,98.835,VALID,0.016,VALID,20.49,INVALID,360.0,VALID,0.0,
2018-05-27, 02:19:06,VALID,916.587,VALID,0.0,VALID,98.819,VALID,-0.047,VALID,20.472,INVALID,360.0,VALID,0.0,
2018-05-27, 02:20:06,VALID,916.587,VALID,0.0,VALID,98.786,VALID,-0.027,VALID,20.441,VALID,94.0,VALID,0.0,
2018-05-27, 02:21:06,VALID,916.57,VALID,0.0,VALID,98.749,VALID,-0.037,VALID,20.364,VALID,121.0,VALID,0.0,
2018-05-27, 02:22:06,VALID,916.549,VALID,0.0,VALID,98.741,VALID,-0.029,VALID,20.328,VALID,112.0,VALID,0.0,
2018-05-27, 02:23:06,VALID,916.54,VALID,0.0,VALID,98.777,VALID,-0.03,VALID,20.335,VALID,109.0,VALID,0.0,
2018-05-27, 02:24:06,VALID,916.517,VALID,0.0,VALID,98.787,VALID,-0.022,VALID,20.352,VALID,123.0,VALID,0.0,
2018-05-27, 02:25:06,VALID,916.5,VALID,0.0,VALID,98.818,VALID,-0.026,VALID,20.382,VALID,87.0,VALID,0.287,
2018-05-27, 02:26:06,VALID,916.482,VALID,0.0,VALID,98.782,VALID,-0.029,VALID,20.348,VALID,108.0,VALID,0.347,
2018-05-27, 02:27:06,VALID,916.46,VALID,0.0,VALID,98.777,VALID,-0.027,VALID,20.316,VALID,106.0,VALID,0.304,
2018-05-27, 02:28:06,VALID,916.449,VALID,0.0,VALID,98.819,VALID,-0.031,VALID,20.347,VALID,92.0,VALID,0.044,
2018-05-27, 02:29:06,VALID,916.418,VALID,0.0,VALID,98.777,VALID,-0.037,VALID,20.336,VALID,91.0,VALID,0.545,
2018-05-27, 02:30:06,VALID,916.391,VALID,0.0,VALID,98.769,VALID,-0.053,VALID,20.318,VALID,82.0,VALID,0.937,
2018-05-27, 02:31:06,VALID,916.365,VALID,0.0,VALID,98.777,VALID,-0.03,VALID,20.316,VALID,80.0,VALID,0.366,
2018-05-27, 02:32:06,VALID,916.342,VALID,0.0,VALID,98.777,VALID,-0.032,VALID,20.326,VALID,106.0,VALID,0.523,
2018-05-27, 02:33:06,VALID,916.325,VALID,0.0,VALID,98.765,VALID,-0.031,VALID,20.324,VALID,105.0,VALID,0.881,
2018-05-27, 02:34:06,VALID,916.313,VALID,0.0,VALID,98.775,VALID,-0.001,VALID,20.322,VALID,106.0,VALID,0.538,
2018-05-27, 02:35:06,VALID,916.303,VALID,0.0,VALID,98.763,VALID,0.001,VALID,20.317,VALID,124.0,VALID,0.638,
2018-05-27, 02:36:06,VALID,916.293,VALID,0.0,VALID,98.774,VALID,-0.015,VALID,20.314,VALID,119.0,VALID,0.187,
2018-05-27, 02:37:06,VALID,916.285,VALID,0.0,VALID,98.785,VALID,0.009,VALID,20.33,VALID,107.0,VALID,0.001,
2018-05-27, 02:38:06,VALID,916.292,VALID,0.0,VALID,98.808,VALID,0.003,VALID,20.349,VALID,108.0,VALID,0.0,
2018-05-27, 02:39:06,VALID,916.282,VALID,0.0,VALID,98.816,VALID,-0.005,VALID,20.37,VALID,108.0,VALID,0.0,
2018-05-27, 02:40:06,VALID,916.268,VALID,0.0,VALID,98.849,VALID,-0.0,VALID,20.399,VALID,108.0,VALID,0.0,
2018-05-27, 02:41:06,VALID,916.26,VALID,0.0,VALID,98.856,VALID,-0.002,VALID,20.412,VALID,108.0,VALID,0.0,
2018-05-27, 02:42:06,VALID,916.242,VALID,0.0,VALID,98.879,VALID,0.002,VALID,20.417,VALID,129.0,VALID,0.004,
2018-05-27, 02:43:06,VALID,916.22,VALID,0.0,VALID,98.886,VALID,0.001,VALID,20.44,INVALID,360.0,VALID,0.02,
2018-05-27, 02:44:06,VALID,916.191,VALID,0.0,VALID,98.88,VALID,0.01,VALID,20.435,VALID,250.0,VALID,0.105,
2018-05-27, 02:45:06,VALID,916.176,VALID,0.0,VALID,98.874,VALID,0.01,VALID,20.396,VALID,250.0,VALID,0.119,
2018-05-27, 02:46:06,VALID,916.15,VALID,0.0,VALID,98.89,VALID,0.005,VALID,20.403,INVALID,360.0,VALID,0.001,
2018-05-27, 02:47:06,VALID,916.134,VALID,0.0,VALID,98.904,VALID,-0.005,VALID,20.406,INVALID,360.0,VALID,0.0,
2018-05-27, 02:48:06,VALID,916.103,VALID,0.0,VALID,98.902,VALID,-0.01,VALID,20.385,INVALID,360.0,VALID,0.0,
2018-05-27, 02:49:06,VALID,916.082,VALID,0.0,VALID,98.945,VALID,0.014,VALID,20.409,INVALID,360.0,VALID,0.0,
2018-05-27, 02:50:06,VALID,916.06,VALID,0.0,VALID,98.965,VALID,0.016,VALID,20.44,INVALID,360.0,VALID,0.0,
2018-05-27, 02:51:06,VALID,916.048,VALID,0.0,VALID,98.971,VALID,0.029,VALID,20.476,INVALID,360.0,VALID,0.0,
2018-05-27, 02:52:06,VALID,916.049,VALID,0.0,VALID,98.989,VALID,0.014,VALID,20.51,INVALID,360.0,VALID,0.0,
2018-05-27, 02:53:06,VALID,916.05,VALID,0.0,VALID,98.98,VALID,0.03,VALID,20.508,INVALID,360.0,VALID,0.0,
2018-05-27, 02:54:06,VALID,916.047,VALID,0.0,VALID,98.971,VALID,0.02,VALID,20.497,INVALID,360.0,VALID,0.0,
2018-05-27, 02:55:06,VALID,916.034,VALID,0.0,VALID,98.963,VALID,0.027,VALID,20.479,INVALID,360.0,VALID,0.0,
2018-05-27, 02:56:06,VALID,916.018,VALID,0.0,VALID,98.954,VALID,0.026,VALID,20.429,INVALID,360.0,VALID,0.0,
2018-05-27, 02:57:06,VALID,915.995,VALID,0.0,VALID,98.958,VALID,0.017,VALID,20.395,INVALID,360.0,VALID,0.0,
2018-05-27, 02:58:06,VALID,915.968,VALID,0.0,VALID,98.973,VALID,0.004,VALID,20.414,INVALID,360.0,VALID,0.0,
2018-05-27, 02:59:06,VALID,915.952,VALID,0.0,VALID,99.005,VALID,0.02,VALID,20.41,INVALID,360.0,VALID,0.0,
2018-05-27, 03:00:06,VALID,915.933,VALID,0.0,VALID,98.967,VALID,0.031,VALID,20.413,INVALID,360.0,VALID,0.0,
2018-05-27, 03:01:06,VALID,915.925,VALID,0.0,VALID,98.992,VALID,0.017,VALID,20.42,INVALID,360.0,VALID,0.0,
2018-05-27, 03:02:06,VALID,915.925,VALID,0.0,VALID,99.003,VALID,0.01,VALID,20.439,VALID,154.0,VALID,0.0,
2018-05-27, 03:03:06,VALID,915.933,VALID,0.0,VALID,99.028,VALID,0.01,VALID,20.475,VALID,153.0,VALID,0.0,
2018-05-27, 03:04:06,VALID,915.94,VALID,0.0,VALID,99.004,VALID,0.03,VALID,20.456,VALID,154.0,VALID,0.0,
2018-05-27, 03:05:06,VALID,915.951,VALID,0.0,VALID,99.008,VALID,0.02,VALID,20.457,VALID,154.0,VALID,0.0,
2018-05-27, 03:06:06,VALID,915.947,VALID,0.0,VALID,99.025,VALID,0.024,VALID,20.46,VALID,156.0,VALID,0.0,
2018-05-27, 03:07:06,VALID,915.946,VALID,0.0,VALID,99.004,VALID,0.026,VALID,20.429,VALID,156.0,VALID,0.0,
2018-05-27, 03:08:06,VALID,915.953,VALID,0.0,VALID,98.996,VALID,0.04,VALID,20.409,VALID,156.0,VALID,0.0,
2018-05-27, 03:09:06,VALID,915.944,VALID,0.0,VALID,99.015,VALID,0.055,VALID,20.43,VALID,156.0,VALID,0.0,
2018-05-27, 03:10:06,VALID,915.95,VALID,0.0,VALID,99.023,VALID,0.039,VALID,20.45,VALID,156.0,VALID,0.0,
2018-05-27, 03:11:06,VALID,915.95,VALID,0.0,VALID,99.036,VALID,0.044,VALID,20.464,VALID,156.0,VALID,0.0,
2018-05-27, 03:12:06,VALID,915.947,VALID,0.0,VALID,99.067,VALID,0.016,VALID,20.472,VALID,156.0,VALID,0.0,
2018-05-27, 03:13:06,VALID,915.934,VALID,0.0,VALID,99.044,VALID,0.05,VALID,20.491,VALID,156.0,VALID,0.0,
2018-05-27, 03:14:06,VALID,915.931,VALID,0.0,VALID,99.032,VALID,0.061,VALID,20.471,VALID,115.0,VALID,0.0,
2018-05-27, 03:15:06,VALID,915.922,VALID,0.0,VALID,99.01,VALID,0.059,VALID,20.428,VALID,100.0,VALID,0.0,
2018-05-27, 03:16:06,VALID,915.902,VALID,0.0,VALID,98.969,VALID,0.039,VALID,20.367,VALID,100.0,VALID,0.0,
2018-05-27, 03:17:06,VALID,915.879,VALID,0.0,VALID,98.974,VALID,0.04,VALID,20.339,VALID,100.0,VALID,0.0,
2018-05-27, 03:18:06,VALID,915.847,VALID,0.0,VALID,99.023,VALID,0.023,VALID,20.347,VALID,101.0,VALID,0.168,
2018-05-27, 03:19:06,VALID,915.836,VALID,0.0,VALID,99.004,VALID,0.007,VALID,20.34,VALID,125.0,VALID,0.428,
2018-05-27, 03:20:06,VALID,915.802,VALID,0.0,VALID,99.033,VALID,0.0,VALID,20.382,VALID,133.0,VALID,0.3,
2018-05-27, 03:21:06,VALID,915.801,VALID,0.0,VALID,99.026,VALID,-0.005,VALID,20.4,VALID,140.0,VALID,0.103,
2018-05-27, 03:22:06,VALID,915.798,VALID,0.0,VALID,99.057,VALID,0.0,VALID,20.419,VALID,140.0,VALID,0.0,
2018-05-27, 03:23:06,VALID,915.792,VALID,0.0,VALID,99.018,VALID,-0.02,VALID,20.384,VALID,128.0,VALID,0.0,
2018-05-27, 03:24:06,VALID,915.795,VALID,0.0,VALID,99.014,VALID,-0.012,VALID,20.361,VALID,128.0,VALID,0.0,
2018-05-27, 03:25:06,VALID,915.819,VALID,0.0,VALID,98.978,VALID,-0.021,VALID,20.306,VALID,128.0,VALID,0.0,
2018-05-27, 03:26:06,VALID,915.827,VALID,0.0,VALID,98.993,VALID,-0.005,VALID,20.286,VALID,116.0,VALID,0.167,
2018-05-27, 03:27:06,VALID,915.829,VALID,0.0,VALID,98.993,VALID,-0.013,VALID,20.293,VALID,101.0,VALID,0.3,
2018-05-27, 03:28:06,VALID,915.846,VALID,0.0,VALID,98.998,VALID,-0.016,VALID,20.302,VALID,100.0,VALID,0.425,
2018-05-27, 03:29:06,VALID,915.839,VALID,0.0,VALID,98.996,VALID,-0.011,VALID,20.299,VALID,98.0,VALID,0.678,
2018-05-27, 03:30:06,VALID,915.841,VALID,0.0,VALID,99.007,VALID,0.001,VALID,20.305,VALID,91.0,VALID,0.39,
2018-05-27, 03:31:06,VALID,915.838,VALID,0.0,VALID,98.998,VALID,0.005,VALID,20.324,VALID,89.0,VALID,0.305,
2018-05-27, 03:32:06,VALID,915.847,VALID,0.0,VALID,98.988,VALID,-0.017,VALID,20.322,VALID,89.0,VALID,0.141,
2018-05-27, 03:33:06,VALID,915.842,VALID,0.0,VALID,98.998,VALID,0.002,VALID,20.323,VALID,89.0,VALID,0.0,
2018-05-27, 03:34:06,VALID,915.843,VALID,0.0,VALID,99.042,VALID,0.016,VALID,20.356,VALID,89.0,VALID,0.0,
2018-05-27, 03:35:06,VALID,915.85,VALID,0.0,VALID,99.02,VALID,0.019,VALID,20.378,VALID,91.0,VALID,0.0,
2018-05-27, 03:36:06,VALID,915.851,VALID,0.0,VALID,99.003,VALID,0.024,VALID,20.393,INVALID,360.0,VALID,0.0,
2018-05-27, 03:37:06,VALID,915.844,VALID,0.0,VALID,99.007,VALID,0.026,VALID,20.417,VALID,274.0,VALID,0.0,
2018-05-27, 03:38:06,VALID,915.845,VALID,0.0,VALID,98.996,VALID,0.032,VALID,20.384,VALID,267.0,VALID,0.0,
2018-05-27, 03:39:06,VALID,915.854,VALID,0.0,VALID,98.982,VALID,0.026,VALID,20.371,VALID,264.0,VALID,0.0,